User: anonymous   Login
Location: Newark
(49.1000°N, 0.4667°W)
Time: 12:34:16
(UTC+00:00)
Language:

Hubble Space Telescope - Orbit

View from above orbital plane
View from above orbital plane
View from above satellite
View from above satellite

Ground track
Ground track

The orbit data is extracted from the following two-line orbital elements,

1 20580U 90037B   21264.11270130  .00000679  00000-0  30028-4 0  9993
2 20580  28.4693 152.0862 0002678  17.2473 102.1000 15.09741257525726
Epoch (UTC): 21 September 2021 02:42:17
Eccentricity: 0.0002678
inclination: 28.4693°
perigee height: 535 km
apogee height: 539 km
right ascension of ascending node: 152.0862°
argument of perigee: 17.2473°
revolutions per day: 15.09741257
mean anomaly at epoch: 102.1000°
orbit number at epoch: 52572

The dashed part of the orbit path shows where the satellite is in the earth's shadow,  

DLR